Weather in Akola

India     20°42′17″N   77°00′04″E
temp.,
°C
wind,
m/s
gust,
m/s
humid.,
%
clouds,
%
prec.,
mm/h
press.,
hPa
HPBL,
m
29 june, wed
wed2923:30+29wnw81167100 3.7 1002740
02:30+28w71169100 1.0 1002740
05:30+27w51074100 1.0 1002685
08:30+29wnw6866100 0.0 1003882
11:30+32wnw6753100 0.0 10021525
14:30+34wnw6646100 0.0 10001926
17:30+33wnw5647100 0.1 9991591
20:30+32w2353100 0.0 1000138
30 june, thu
thu3023:30+32w4757100 0.0 1000334
02:30+30wnw71062100 0.1 999839
05:30+28w61070100 0.2 1000768
08:30+29w7964100 0.0 1003887
11:30+31wnw7853100 0.0 10021383
14:30+34nw6745100 0.1 10002080
17:30+33wnw5648100 0.3 9991622
20:30+31wsw5755100 0.1 1001714
1 july, fri
fri123:30+27w81177100 2.2 1003467
02:30+27w5973100 0.1 1002534
05:30+27w4971100 0.1 1002664
08:30+29w6764100 0.0 1004962
11:30+33w774862 0.0 10031848
14:30+33w8847100 0.2 10011958
17:30+33wnw784695 0.3 10011711
20:30+31w6851100 0.1 1002734
2 july, sat
sat223:30+30w695881 0.1 1003584
02:30+28w6965100 0.0 1002746
05:30+27w597086 0.0 1002643
08:30+29w676399 0.0 1004973
11:30+33w6647100 0.0 10031855
14:30+33wnw5643100 0.0 10001958
17:30+33wnw4642100 0.1 10001785
20:30+32w4750100 0.1 1001651
3 july, sun
sun323:30+29wnw71063100 0.4 1002652
02:30+28w71065100 2.3 1001881
05:30+27w61071100 2.3 1002794
08:30+27w6870100 0.0 1003699
11:30+29w4661100 0.0 10031191
14:30+31ssw4656100 0.0 1001691
17:30+31sw365493 0.1 1000571
20:30+29ssw3463100 0.1 1001159